Location: Bothwell
(42.3833°S, 147.0000°E)
Time: 20:49:02
(UTC+10:00)

Envisat - Pass Details

Date: 26 February 2024
Orbit: 762 x 764 km, 98.3° (Epoch: 22 April)

Event Time Altitude Azimuth Distance (km) Brightness Sun altitude
Exits shadow 02:43:04 24° 113° (ESE) 1,569 4.9 -35.5°
Maximum altitude 02:43:12 24° 116° (ESE) 1,568 4.9 -35.5°
Drops below altitude 10° 02:47:14 10° 167° (SSE) 2,333 6.3 -35.2°
Sets 02:49:56 0° 180° (S) 3,267 7.1 -35.0°
